This is the latest recevied weather packets stored in our database for station/object WMKD. If no packets are shown the sender has not sent any weather packets the latest 10 day(s).
| Time | Temp. | Humidity | Pressure | Rain* | Wind** | Luminosity | Snow |
|---|---|---|---|---|---|---|---|
| 1777748993 | 25° C | 94% | 1008 hPa | - | - | - | - |
| 1777745386 | 25° C | 94% | 1008 hPa | - | - | - | - |
| 1777741788 | 25.56° C | 88% | 1009 hPa | - | - | - | - |
| 1777740585 | 25.56° C | 94% | 1009 hPa | - | - | - | - |
| 1777740000 | 25° C | 95% | 1010.9 hPa | - | - | - | - |
| 1777738185 | 25.56° C | 94% | 1009 hPa | - | - | - | - |
| 1777734585 | 26.67° C | 88% | 1009 hPa | - | - | - | - |
| 1777730989 | 26.67° C | 88% | 1009 hPa | - | - | - | - |
| 1777727385 | 26.67° C | 88% | 1008 hPa | - | - | - | - |
| 1777723790 | 28.89° C | 83% | 1007 hPa | - | - | - | - |
| 1777720187 | 28.89° C | 83% | 1006 hPa | - | - | - | - |
| 1777717183 | 30° C | 74% | 1006 hPa | - | - | - | - |
| 1777716588 | 30° C | 74% | 1006 hPa | - | - | - | - |
| 1777712985 | 31.67° C | 66% | 1005 hPa | - | - | - | - |
| 1777709385 | 32.78° C | 59% | 1006 hPa | - | - | - | - |
| 1777706381 | 33.89° C | 56% | 1007 hPa | - | - | - | - |
| 1777705786 | 33.89° C | 56% | 1007 hPa | - | - | - | - |
| 1777702188 | 32.78° C | 59% | 1007 hPa | - | - | - | - |
| 1777698585 | 32.78° C | 59% | 1009 hPa | - | - | - | - |
| 1777694985 | 30.56° C | 70% | 1010 hPa | - | - | - | - |
| 1777691384 | 30.56° C | 70% | 1010 hPa | - | - | - | - |
| 1777687787 | 28.89° C | 83% | 1010 hPa | - | - | - | - |
| 1777684184 | 25.56° C | 94% | 1010 hPa | - | - | - | - |
| 1777680584 | 25° C | 94% | 1009 hPa | - | - | - | - |
| 1777676984 | 25° C | 94% | 1008 hPa | - | - | - | - |
* Rain since midnight (hover to see other rain measurements)
** Current wind speed in m/s (hover to see current wind gust speed)